Погода в Козьмодемьянске

Россия / Ярославская область     57°29′29″N   39°41′16″E
В апреле 2022 года жителям России запретили посещать сайт meteo.paraplan.net по решению Генеральной прокуратуры. Аудитория сайта уменьшилась в 10 раз. Владельцы сайта не видят смысла в поддержке погодного сервера в таких условиях. Сайт будет закрыт в октябре.
темп.,
°C
ветер,
м/с
пор.,
м/с
влажн.,
%
обл.,
%
осадки,
мм/ч
давл.,
гПа
погр.,
м
5 октября, ср
ср500:00+8ю2691100 3.2 1011293
03:00+8юв2496100 3.7 1011156
06:00+8ю1291100 0.7 1011126
09:00+7зюз2391100 1.4 1011281
12:00+8ююз2485100 0.3 1012494
15:00+8юз3581100 0.4 1013504
18:00+7зюз2485100 0.1 1014180
21:00+7з3589100 0.1 1014205
6 октября, чт
чт600:00+5з359423 0.0 1015105
03:00+4з369614 0.0 1016131
06:00+5з369369 0.0 1016165
09:00+6з35855 0.0 1017247
12:00+10зюз34675 0.0 1016755
15:00+11юз456522 0.0 1015946
18:00+8ююз3985100 0.0 1014199
21:00+9ююз6128989 0.0 1013564
7 октября, пт
пт700:00+10ююз61290100 0.1 1011463
03:00+11зюз61393100 0.8 1010580
06:00+10зсз7138648 0.3 1012740
09:00+10з61278100 0.3 1013933
12:00+11з71373100 0.0 1014963
15:00+11з8147488 0.1 10151141
18:00+11з714725 0.0 1017750
21:00+9зсз613801 0.0 1019550
8 октября, сб
сб800:00+7з411895 0.0 1020354
03:00+6зюз4993100 0.0 1020201
06:00+7юз41189100 0.0 1020258
09:00+9юз5118762 0.0 1020364
12:00+13зюз696987 0.0 1019748
15:00+14юз696589 0.0 1018927
18:00+10ююз5117776 0.0 1017311
21:00+10ююз61378100 0.0 1016498
9 октября, вс
вс900:00+10ююз61379100 0.0 1015526
03:00+9ююз61378100 0.0 1014521
06:00+9ююз61280100 0.0 1013505
09:00+10юз51080100 0.0 1013603
12:00+9юз5988100 0.9 1013455
15:00+9юз51193100 3.4 1013501
18:00+9юз4895100 1.4 1014421
21:00+8з3891100 1.7 1015309